Other Public Products
Issued by NWS Charleston, SC

Home | Current Version | Previous Version | Text Only | Print | Product List | Glossary On
Versions: 1 2 3 4 5 6 7 8 9 10 11 12 13 14 15 16 17 18 19 20 21 22 23 24 25 26 27 28 29 30 31 32 33 34 35 36 37 38 39 40 41 42 43 44 45 46 47 48 49 50
976
FPUS82 KCHS 071527
OPUCHS

TEST...KCHS/KSAV Gateway Observations...TEST
National Weather Service Charleston SC
1000 AM EST WED DEC 07 2016

NOTE: "fair" indicates few or no clouds below 12,000 feet with no
significant weather and/or obstructions to visibility.

SCZ050-WAZ558-NCZ071-TXZ119-213-PAZ071-DCZ001-FLZ074-172-MI076-
NYZ176-178-MAZ016-IL014-TNZ027-NJZ106-GAZ044-MD014-071600-
...Gateway Observations for Charleston International...

CITY           SKY/WX    TMP DP  RH WIND       PRES   REMARKS
Chas Airport   CLOUDY    53  50  89 E6        30.09R
Seattle        CLEAR     28  21  75 N10       30.41F WCI  19
Charlotte      PTSUNNY   45  43  93 CALM      30.09R
Dallas DFW     CLOUDY    44  36  73 CALM      30.10R
Dallas Love    CLOUDY    45  38  76 CALM      30.11R
Philladelphia  CLOUDY    43  39  86 N6        30.02R
Wash National  CLOUDY    47  39  74 NW12G20   30.07R
Baltimore      CLOUDY    46  42  86 NW7       30.04R
Miami          MOSUNNY   80  73  79 CALM      30.07R
Detroit        PTSUNNY   33  25  72 SW12      30.04S WCI  24
Newark         DRIZZLE   39  37  93 N5        30.01S WCI  36
Laguardia      CLOUDY    44  38  79 NE7       30.01R
J F K          CLOUDY    44  40  85 N7        30.01R
Boston Logan   CLOUDY    37  36  96 NW8       30.00R FOG     WCI  31
Ft. Lauderdale PTSUNNY   76  72  87 N6        30.06R
Chicago O`Hare PTSUNNY   24  16  71 W13       30.07S WCI  12
Chicago Midway CLOUDY    26  16  65 W13       30.09R WCI  15
Houston Bush   FOG       50  49  96 SE7       30.11R VSB<1/4
Houston Hobby  FOG       51  51 100 E6        30.10R VSB 1
Nashville      CLOUDY    40  34  79 N10       30.19R WCI  33
Atlanta        MOSUNNY   49  42  77 W5        30.06R

$$

GAZ044-118-TXZ119-213-NCZ071-DCZ001-MDZ014-506-PAZ021-071-NJZ106-
NYZ176-178-MAZ106-OHZ011-021-055-MIZ076-KYZ091-ILZ014-INZ047-
MNZ060-071600-
...Gateway Observations for Savannah International...

CITY           SKY/WX    TMP DP  RH WIND       PRES   REMARKS
Savannah Arpt  CLOUDY    56  54  93 N3        30.09R
Atlanta        MOSUNNY   49  42  77 W5        30.06R
Charlotte      PTSUNNY   45  43  93 CALM      30.09R
Dallas DFW     CLOUDY    44  36  73 CALM      30.10R
Houston Bush   FOG       50  49  96 SE7       30.11R VSB<1/4
Wash National  CLOUDY    47  39  74 NW12G20   30.07R
Wash Dulles    CLOUDY    43  38  82 NW7       30.07R
Baltimore      CLOUDY    46  42  86 NW7       30.04R
Philadelphia   CLOUDY    43  39  86 N6        30.02R
Newark         DRIZZLE   39  37  93 N5        30.01S WCI  36
Laguardia      CLOUDY    44  38  79 NE7       30.01R
J F K          CLOUDY    44  40  85 N7        30.01R
Boston         CLOUDY    37  36  96 NW8       30.00R FOG     WCI  31
Pittsburg      MOSUNNY   36  28  73 W8        30.07R WCI  30
Akron          PTSUNNY   31  23  72 W8        30.08R WCI  23
Cleveland      CLOUDY    33  24  69 SW12      30.10R WCI  24
Cincinnati     MOSUNNY   34  23  64 SW6       30.18R WCI  29
Columbus         N/A     31  25  76 W9        30.16R WCI  23
Detroit        PTSUNNY   33  25  72 SW12      30.04S WCI  24
Chicago O`Hare PTSUNNY   24  16  71 W13       30.07S WCI  12
Minneapolis    LGT SNOW  17   9  70 W17G23    30.01R WCI   1
Indianapolis   PTSUNNY   32  23  69 SW10      30.17R WCI  24

$$




USA.gov is the U.S. government's official web portal to all federal, state and local government web resources and services.